Flag for Japan Weather past 2 weeks in Fukuoka, Japan

Now
90 °F

Passing clouds.


Feels Like: 100 °F
Forecast: 78 / 89 °F
Wind: 12 mph from Northwest

Location: Fukuoka Airport

Current Time: Jul 31, 2015 at 3:14:43 PM

Latest Report: Jul 31, 2015 at 2:30 PM


Visibility: N/A

Pressure: 29.80 "Hg

Humidity: 63%

Dew point: 75 °F

Location of FukuokaLocation

Historic Weather in Fukuoka — Graph

°F

Fukuoka temperature yesterday

Maximum temperature yesterday: 93 °F (at 1:30 PM)
Minimum temperature yesterday: 81 °F (at 1:00 AM)
Average temperature yesterday: 85 °F

Past Weeks' High & Low Weather Summary

 TemperatureHumidityPressure
High93 °F (Jul 25, 12:00 PM)94% (Jul 17, 3:30 AM)29.89 "Hg (Jul 17, 3:30 AM)
Low66 °F (Jul 17, 3:30 AM)44% (Jul 25, 1:00 PM)29.45 "Hg (Jul 16, 5:00 PM)
Average81 °F77%29.76 "Hg
* Reported Jul 16 2:00 PM — Jul 31 2:00 PM, Fukuoka, Weather by CustomWeather, © 2015

Note: Actual official high and low records may vary slightly from our data, if they occured in-between our weather recording intervals... More about our weather records

Advertising

Fukuoka weather history for previous 24 hours

 ConditionsComfort  
Time TempWeatherWind HumidityBarometerVisibility
2:00 PM
Fri, Jul 31
91 °FPassing clouds.10 mph59%29.80 "HgN/A
1:30 PM90 °FPassing clouds.10 mph63%29.80 "HgN/A
1:00 PM91 °FPassing clouds.10 mph59%29.80 "HgN/A
12:30 PM93 °FPassing clouds.3 mph56%29.80 "HgN/A
12:00 PM91 °FPassing clouds.7 mph56%29.80 "HgN/A
11:30 AM90 °FPassing clouds.7 mph59%29.83 "HgN/A
11:00 AM90 °FPassing clouds.5 mph55%29.83 "HgN/A
10:30 AM90 °FPassing clouds.8 mph59%29.83 "HgN/A
10:00 AM88 °FPassing clouds.2 mph62%29.86 "HgN/A
9:30 AM86 °FPassing clouds.1 mph66%29.86 "HgN/A
9:00 AM86 °FScattered clouds.5 mph66%29.86 "HgN/A
8:30 AM84 °FScattered clouds.5 mph70%29.86 "HgN/A
8:00 AM82 °FScattered clouds.2 mph74%29.86 "HgN/A
7:30 AM82 °FPassing clouds.5 mph74%29.86 "HgN/A
7:00 AM81 °FPassing clouds.6 mph84%29.86 "HgN/A
6:30 AM81 °FPassing clouds.7 mph84%29.86 "HgN/A
6:00 AM79 °FPassing clouds.5 mph89%29.83 "HgN/A
5:30 AM79 °FPassing clouds.7 mph89%29.83 "HgN/A
5:00 AM79 °FPassing clouds.7 mph89%29.83 "HgN/A
4:30 AM81 °FPartly cloudy.1 mph84%29.83 "HgN/A
4:00 AM81 °FPassing clouds.5 mph84%29.83 "HgN/A
3:30 AM81 °FPassing clouds.5 mph84%29.83 "HgN/A
3:00 AM81 °FPassing clouds.8 mph84%29.83 "HgN/A
2:30 AM81 °FPassing clouds.9 mph84%29.83 "HgN/A
2:00 AM81 °FPassing clouds.9 mph84%29.83 "HgN/A
1:30 AM81 °FPassing clouds.3 mph84%29.83 "HgN/A
1:00 AM82 °FPassing clouds.2 mph79%29.83 "HgN/A
12:30 AM82 °FPassing clouds.5 mph79%29.83 "HgN/A
12:00 AM82 °FPassing clouds.5 mph84%29.83 "HgN/A
11:30 PM
Thu, Jul 30
82 °FPassing clouds.6 mph84%29.83 "HgN/A
11:00 PM82 °FPassing clouds.3 mph84%29.83 "HgN/A
10:30 PM82 °FPassing clouds.5 mph79%29.80 "HgN/A
10:00 PM82 °FPassing clouds.6 mph79%29.83 "HgN/A
9:30 PM82 °FPassing clouds.5 mph84%29.83 "HgN/A
9:00 PM82 °FPassing clouds.5 mph79%29.80 "HgN/A
8:30 PM82 °FPassing clouds.6 mph79%29.80 "HgN/A
8:00 PM84 °FPassing clouds.5 mph74%29.80 "HgN/A
7:30 PM84 °FPassing clouds.5 mph74%29.80 "HgN/A
7:00 PM84 °FPassing clouds.5 mph74%29.80 "HgN/A
6:30 PM84 °FPassing clouds.8 mph74%29.80 "HgN/A
6:00 PM86 °FPassing clouds.10 mph70%29.80 "HgN/A
5:30 PM88 °FPassing clouds.10 mph66%29.80 "HgN/A
5:00 PM88 °FPassing clouds.10 mph66%29.80 "HgN/A
4:30 PM88 °FPassing clouds.8 mph66%29.80 "HgN/A
4:00 PM88 °FPassing clouds.13 mph66%29.80 "HgN/A
3:30 PM90 °FPassing clouds.12 mph63%29.80 "HgN/A
3:00 PM90 °FPassing clouds.13 mph63%29.80 "HgN/A
Weather by CustomWeather, © 2015

See weather overviewHow to use our weather pages